Regional Weather Roundup
Issued by NWS

Home | Current Version | Previous Version | Graphics & Text | Print | Product List | Glossary Off
Versions: 1 2 3 4 5 6 7 8 9 10 11 12 13 14 15 16 17 18 19 20 21 22 23 24 25 26 27 28 29 30 31 32 33 34 35 36 37 38 39 40 41 42 43 44 45 46 47 48 49 50

000
ASUS43 KLSX 011859
RWRMO

WEATHER SUMMARY FOR MISSOURI
NATIONAL WEATHER SERVICE SPRINGFIELD MO
200 PM CDT SAT AUG 01 2015

NOTE: "FAIR" INDICATES FEW OR NO CLOUDS BELOW 12,000 FEET WITH NO
       SIGNIFICANT WEATHER AND/OR OBSTRUCTIONS TO VISIBILITY.
       CURRENT SKY AND/OR WEATHER CONDITIONS ARE NOT AVAILABLE FOR
       CHILLICOTHE AND FARMINGTON.

MOZ001>031-035>038-043-044-053-054-012000-
...NORTHERN AND WESTERN MISSOURI...

CITY           SKY/WX    TMP DP  RH WIND       PRES   REMARKS
KANSAS CTY INT MOSUNNY   89  73  59 W7        30.02F HX  97
KANSAS C DTWN  PTSUNNY   90  75  61 NW7       29.99F HX 100
LEE`S SUMMIT   SUNNY     89  69  51 VRB3      30.02F HX  93
ST JOSEPH      MOSUNNY   88  76  67 W6        30.00F HX  99
CHILLICOTHE      N/A     90  75  61 CALM      30.00F HX 100
KIRKSVILLE     PTSUNNY   86  71  60 VRB7      30.02F HX  91

$$
MOZ066>068-077>081-088>096-101>105-012000-
...SOUTHWEST MISSOURI...

CITY           SKY/WX    TMP DP  RH WIND       PRES   REMARKS
SPRINGFIELD    SUNNY     89  61  38 W7        30.06F
JOPLIN         SUNNY     92  66  42 W9        30.05F HX  94

$$
MOZ032>034-039>042-045>050-055>058-069>072-012000-
...CENTRAL MISSOURI...

CITY           SKY/WX    TMP DP  RH WIND       PRES   REMARKS
COLUMBIA       MOSUNNY   86  70  58 CALM      30.02F HX  90
JEFFERSON CITY SUNNY     91  64  40 CALM      29.99F HX  92
ROLLA          MOSUNNY   89  67  47 VRB6      30.03F HX  92
SEDALIA        MOSUNNY   87  72  60 CALM      30.03F HX  93
WARRENSBURG    PTSUNNY   79  70  73 E8        30.02F
OSAGE BEACH    SUNNY     88  70  55 SW5       30.03F HX  92

$$
MOZ051-052-059>065-012000-
...EAST CENTRAL MISSOURI...

CITY           SKY/WX    TMP DP  RH WIND       PRES   REMARKS
ST LOUIS INTL  PTSUNNY   90  59  35 CALM      30.02F
SPIRIT OF STL  PTSUNNY   86  65  49 SE3       30.00F
ST CHARLES     PTSUNNY   86  63  45 VRB3      30.01F

$$
MOZ072>076-082>087-097>100-106>115-012000-
...SOUTH CENTRAL AND SOUTHEAST MISSOURI...

CITY           SKY/WX    TMP DP  RH WIND       PRES   REMARKS
CAPE GIRARDEAU MOSUNNY   88  70  55 VRB3      30.01F HX  93
FARMINGTON     PTSUNNY   88  70  55 N6        30.08F HX  92
POPLAR BLUFF   MOSUNNY   92  69  47 NE3       30.00F HX  97
WEST PLAINS    SUNNY     89  60  37 VRB6      30.08F

$$


USA.gov is the U.S. government's official web portal to all federal, state and local government web resources and services.